Location: La Sioule Rivi�re
(46.3664°N, 3.3197°E)
Time: 12:49:31
(UTC+00:00)

USA 215 - Pass Details

Date: 29 October 2020
Orbit: 1102 x 1106 km, 123.0° (Epoch: 23 November)

Event Time Altitude Azimuth Distance (km) Brightness Sun altitude
Exits shadow 18:10:08 21° 61° (ENE) 2,279 4.4 -16.7°
Maximum altitude 18:13:52 37° 9° (N) 1,651 4.1 -17.4°
Drops below altitude 10° 18:19:44 10° 305° (NW) 2,966 6.3 -18.4°
Sets 18:22:23 0° 298° (WNW) 3,925 7.2 -18.9°
